Location: Unspecified
(0.0000°N, 0.0000°E)
Time: 07:25:23
(UTC+02:00)

ATLAS V CENTAUR R/B - Visible Passes

Search period start: 31 March 2015 00:00
Search period end: 10 April 2015 00:00
Orbit: 230 x 29784 km, 18.0° (Epoch: 30 March)

Date Brightness Start Highest point End Pass type
(mag) Time Alt. Az. Time Alt. Az. Time Alt. Az.
31 Mar 5.2 10:57:11 10° WNW 11:18:09 51° SSW 11:21:53 10° SE visible
31 Mar 8.0 20:20:12 10° WSW 20:36:37 79° SSE 04:12:28 10° ENE visible
01 Apr 9.1 22:22:24 10° WSW 23:23:08 80° NNW 06:19:40 10° E visible
03 Apr 7.6 00:30:00 10° W 08:08:49 74° NNE 08:21:01 10° E visible
03 Apr 6.4 17:19:02 10° SSW 17:24:22 31° SSE 17:56:14 10° E visible
04 Apr 5.8 03:00:32 10° W 10:14:10 74° SSW 10:19:23 10° ESE visible
04 Apr 7.3 19:16:17 10° SW 19:27:20 68° SSE 03:00:51 10° ENE visible
05 Apr 8.9 21:14:46 10° WSW 21:43:15 87° NNW 05:10:21 10° E visible
06 Apr 8.5 23:16:20 10° W 06:50:32 71° N 07:11:08 10° E visible
07 Apr 5.9 16:10:21 10° S 16:13:15 15° SE 16:20:04 10° ESE visible
08 Apr 6.7 01:27:45 10° W 09:00:07 89° NNE 09:08:03 10° ESE visible
08 Apr 6.7 18:04:10 10° SW 18:11:34 51° SSE 01:32:01 10° ENE visible
09 Apr 5.4 10:38:21 10° W 10:58:44 42° SSW 11:02:37 10° SE visible
